Regional Weather Roundup
Issued by NWS Midland/Odessa, TX

Home | Current Version | Previous Version | Text Only | Print | Product List | Glossary On
Versions: 1 2 3 4 5 6 7 8 9 10 11 12 13 14 15 16 17 18 19 20 21 22 23 24 25 26 27 28 29 30 31 32 33 34 35 36 37 38 39 40 41 42 43 44 45 46 47 48 49 50
000
ASUS44 KMAF 010610
RWRMAF
MIDLAND AREA WEATHER ROUNDUP
NATIONAL WEATHER SERVICE MIDLAND TX
100 AM CDT MON MAY 01 2017

...IN SOUTHWEST TEXAS AND SOUTHEAST NEW MEXICO...

CITY           SKY/WX    TMP DP  RH WIND       PRES   REMARKS
ALPINE         CLEAR     50   9  19 SW7       30.11S
ANDREWS        FAIR      54  26  34 SW8       29.94S
ARTESIA        CLEAR     57  27  30 W14       29.93S
BIG SPRING     CLEAR     54  32  43 SE12      29.95F
CARLSBAD       CLEAR     55  29  36 W10       29.92S
DRYDEN           N/A     57  17  21 NE3       29.98S
FORT STOCKTON  CLEAR     62  13  14 S14       29.97F
GUAD PASS      CLEAR     55  15  20 SW22      30.03S
HOBBS          CLEAR     48  32  53 SW6       29.95S
MARFA          CLEAR     37   7  28 CALM      30.10S
MIDLAND AIRPK  CLEAR     56  29  35 S6        29.94S
MIDLAND INTL   CLEAR     53  28  38 S6        29.94S
ODESSA         CLEAR     55  29  36 S6        29.95S
PECOS          CLEAR     52  18  26 S7        29.94S
PRESIDIO       FAIR      61   7  11 N8        30.02S
SEMINOLE       CLEAR     48  32  53 SW9       29.94S
SNYDER         CLEAR    N/A N/A N/A S7        29.93R
WINK           CLEAR     52  32  46 SE7       29.92F
$$
...OTHER STATIONS IN TEXAS...

CITY           SKY/WX    TMP DP  RH WIND       PRES   REMARKS
ABILENE        CLEAR     48  34  58 SE7       29.93S
AMARILLO       CLEAR     36  31  82 W7        29.90R WCI  30
AUSTIN         CLEAR     52  47  83 W6        29.99R
BROWNSVILLE    CLEAR     65  56  72 S3        29.99S
CORPUS CHRISTI CLEAR     60  52  74 S5        29.98R
DALLAS FTW     CLEAR     55  34  45 W10       29.92S
DEL RIO        CLEAR     60  40  47 CALM      29.97R
EL PASO        CLEAR     70   6   8 W15       29.98R
HOUSTON INT    CLEAR     56  48  74 CALM      29.97S
LUBBOCK        PTCLDY    46  31  55 SE8       29.90F
SAN ANGELO     CLEAR     51  33  50 S9        29.96S
SAN ANTONIO    CLEAR     62  40  44 N5        30.00R
WACO           CLEAR     45  42  89 W5        29.96F
WICHITA FALLS  NOT AVBL
$$
...OTHER LOCATIONS IN NEW MEXICO...

CITY           SKY/WX    TMP DP  RH WIND       PRES   REMARKS
ALAMOGORDO     CLEAR     52  30  43 E3        30.00R
ALBUQUERQUE    CLEAR     53  17  24 N6        30.03F
CANNON AFB     CLEAR     52  30  43 W13       29.90S
CLOVIS         CLEAR     39  30  70 N8        29.91S WCI  34
HOLLOMAN AFB   CLEAR     52  29  41 N9        30.02S
ROSWELL        CLEAR     54  31  41 NW8         N/A
RUIDOSO        CLEAR     50  16  25 W15       30.08S
SANTA FE       CLEAR     47  21  35 NW14      30.01F
TRUTH OR CONSE CLEAR     61  11  14 NW9       30.02S
TUCUMCARI      CLEAR     42  36  79 NE6       29.90R WCI  38
$$




USA.gov is the U.S. government's official web portal to all federal, state and local government web resources and services.